Location: Ç?ral? Körfezi
(36.3984°N, 30.4829°E)
Time: 18:51:14
(UTC+00:00)

Cosmos 2333 Rocket - Pass Details

Date: 04 August 2024
Orbit: 839 x 863 km, 70.8° (Epoch: 19 September)

Event Time Altitude Azimuth Distance (km) Brightness Sun altitude
Exits shadow 22:57:23 27° 68° (ENE) 1,590 3.8 -35.2°
Drops below altitude 10° 23:00:35 10° 41° (NE) 2,498 5.3 -35.1°
Sets 23:03:15 0° 33° (NNE) 3,441 6.3 -34.9°
